Wetbulb
74.70 73.58 72.37 71.14 70.90 70.72 70.57 71.38 71.90 72.24 72.45 72.61 72.81 72.48 72.30 72.58 72.42 72.80 73.21 72.82 72.38 72.34 71.83 71.19 70.64 70.39 70.00 69.11 68.42 68.80 68.72 69.17
75.61 74.43 73.20 72.44 71.93 70.59 70.23 70.52 70.89 71.32 71.86 71.68 71.55 71.61 71.96 71.98 71.77 72.19 72.58 72.22 71.87 72.06 71.14 70.56 70.08 69.40 69.06 68.35 67.72 68.33 68.72 68.85
73.83 73.43 73.18 73.45 72.92 71.66 70.65 70.86 70.73 70.61 71.31 71.23 70.27 73.20 72.60 72.28 71.26 70.77 71.78 70.65 70.34 70.89 70.43 69.53 69.06 68.88 68.72 68.22 67.97 68.76 68.43 67.97
73.16 72.73 72.58 73.11 73.41 72.51 71.69 71.57 71.12 71.21 71.38 71.77 72.51 72.72 73.06 72.51 71.12 70.02 70.55 69.90 69.74 69.83 69.29 68.64 68.04 69.09 68.52 68.04 68.12 68.74 67.97 67.76
72.81 72.83 72.13 71.72 71.83 72.70 72.30 71.75 71.19 71.23 71.35 71.48 71.59 71.73 71.94 71.29 71.61 70.70 70.91 69.94 70.67 69.30 68.96 69.49 69.46 69.34 68.82 68.51 68.48 68.52 68.02 67.24
72.07 72.39 72.34 72.07 71.98 71.79 72.96 72.75 71.89 71.50 71.53 71.94 71.55 70.93 71.00 71.23 70.50 71.08 70.97 70.90 70.21 69.63 69.52 69.54 69.19 69.05 68.63 68.65 68.50 68.01 67.92 66.99
61.89 64.74 70.39 72.00 71.24 71.98 71.74 71.37 71.92 71.88 72.19 72.08 71.63 71.09 70.66 70.69 70.35 70.14 70.66 70.55 70.14 69.37 69.10 69.24 68.78 68.40 68.66 68.29 67.94 67.69 67.38 66.92
62.39 63.42 63.55 63.62 70.98 70.72 70.98 71.46 71.35 71.96 71.68 71.54 72.09 71.66 70.34 70.10 69.81 68.80 70.11 69.65 69.60 69.58 68.88 68.04 68.11 67.74 67.40 67.62 67.41 67.53 67.53 66.60
62.61 63.40 64.69 64.52 63.86 66.09 70.41 70.66 70.89 70.61 70.99 71.53 70.96 70.93 70.87 70.09 69.24 68.64 68.73 69.44 68.36 69.00 68.56 68.68 67.76 67.59 66.89 67.02 67.14 67.26 67.02 66.54
62.02 62.33 63.16 64.16 64.07 63.91 63.48 64.74 70.26 70.39 70.11 70.72 70.91 70.37 70.20 69.63 69.41 68.08 68.85 68.32 68.73 68.69 68.13 67.39 66.91 66.66 66.02 66.45 66.31 66.61 66.49 65.65
60.53 61.54 61.57 62.09 63.08 63.39 63.46 63.37 62.75 69.37 69.94 69.56 70.32 69.78 69.43 69.51 69.44 68.78 68.60 67.76 67.69 68.22 67.34 67.18 66.04 65.42 66.21 65.80 65.59 65.33 65.27 66.01
59.45 59.39 60.03 60.78 60.73 62.09 62.23 62.06 61.79 62.85 67.86 69.61 69.76 69.88 69.41 69.18 69.22 68.85 68.33 67.80 67.31 67.76 66.59 66.81 66.02 65.42 64.70 64.74 64.65 64.62 64.93 64.85
56.86 56.76 57.03 57.22 57.31 57.17 57.68 58.32 60.57 60.83 64.60 67.49 69.03 69.31 69.44 68.71 68.71 68.51 68.13 67.14 66.33 67.13 65.51 65.29 63.97 64.59 62.69 62.91 62.22 63.44 64.03 63.24
54.86 54.77 54.72 54.89 55.63 56.05 56.52 56.58 57.53 59.11 60.56 61.77 66.70 67.71 68.12 68.62 68.36 68.07 67.54 66.54 65.92 65.92 65.05 63.56 64.04 64.58 61.40 59.01 55.94 58.09 60.50 62.68
53.36 53.24 53.01 53.56 54.33 54.26 54.98 55.74 56.18 57.50 58.37 59.34 61.16 66.86 67.69 67.92 68.25 67.70 66.50 66.13 65.01 65.53 64.82 63.13 61.97 63.42 62.54 57.90 54.43 53.60 55.72 60.45
52.59 52.19 51.98 52.19 52.34 51.14 50.58 50.49 50.55 53.15 55.53 58.65 60.84 66.80 66.83 67.37 67.66 67.56 66.19 65.44 64.67 64.66 65.38 63.28 62.39 60.90 62.39 61.60 60.17 58.60 54.51 53.87
51.04 50.07 49.57 49.31 49.55 48.70 46.84 46.55 49.47 51.67 53.66 55.57 58.58 60.99 66.09 66.74 66.76 66.60 65.51 64.87 64.09 64.98 64.53 63.81 62.49 61.24 61.12 60.42 60.47 60.49 59.47 55.85
48.22 47.24 46.55 47.44 47.28 45.76 44.38 43.78 45.36 47.05 49.19 51.69 54.81 59.58 63.18 65.42 65.54 66.64 66.40 65.00 64.40 64.07 61.74 63.56 62.54 62.55 62.10 61.23 59.53 59.21 58.46 56.88
46.17 45.33 44.57 46.07 45.38 43.41 42.75 43.03 43.95 44.95 46.99 49.29 51.77 55.88 60.41 62.42 65.04 65.40 65.53 64.71 64.14 64.01 63.51 63.21 62.67 62.34 62.04 61.35 61.71 60.56 60.27 59.30
44.43 43.71 43.14 43.71 43.22 42.16 41.73 42.48 44.02 46.00 47.58 49.96 51.53 55.21 59.51 62.72 63.74 64.58 64.66 64.62 64.34 64.05 63.41 61.99 60.61 60.24 60.70 62.16 61.86 61.45 61.77 59.71
MSLP
1005.58 1006.03 1006.62 1007.03 1007.33 1007.72 1007.99 1008.28 1008.63 1008.93 1009.21 1009.58 1009.86 1010.24 1010.62 1011.09 1011.37 1011.74 1012.00 1012.32 1012.64 1012.81 1013.06 1013.48 1014.00 1014.31 1014.44 1014.56 1014.59 1014.54 1014.25 1013.82
1005.37 1005.74 1006.31 1006.92 1007.23 1007.74 1008.06 1008.31 1008.57 1008.85 1009.22 1009.50 1009.82 1010.30 1010.60 1011.04 1011.29 1011.67 1011.97 1012.28 1012.56 1012.73 1013.03 1013.23 1013.49 1014.19 1014.50 1014.57 1014.61 1014.51 1014.38 1013.92
1005.24 1005.74 1006.08 1006.50 1006.82 1007.44 1008.03 1008.32 1008.63 1008.93 1009.23 1009.52 1009.82 1010.01 1010.34 1010.75 1011.06 1011.36 1011.83 1012.29 1012.53 1012.73 1012.93 1013.35 1013.58 1013.71 1014.35 1014.61 1014.68 1014.54 1014.19 1014.07
1004.90 1005.55 1006.12 1006.33 1006.29 1006.88 1007.53 1008.00 1008.38 1008.65 1008.88 1009.30 1009.58 1009.67 1009.78 1010.12 1010.51 1011.03 1011.40 1011.92 1012.34 1012.58 1012.81 1013.08 1013.52 1013.77 1013.85 1014.46 1014.63 1014.36 1014.22 1013.96
1004.61 1005.12 1005.74 1006.35 1006.45 1006.77 1007.01 1007.31 1007.80 1008.17 1008.39 1008.60 1009.07 1009.22 1009.28 1009.54 1009.90 1010.45 1011.01 1011.61 1012.10 1012.58 1012.85 1012.99 1013.16 1013.46 1013.39 1013.67 1013.92 1014.13 1014.04 1013.85
1004.07 1004.77 1005.58 1006.00 1006.53 1006.69 1006.85 1006.85 1007.06 1007.57 1007.81 1008.10 1008.49 1009.03 1009.13 1009.17 1009.49 1009.85 1010.34 1010.72 1011.35 1011.64 1012.08 1012.48 1012.51 1012.54 1012.93 1013.19 1013.23 1013.58 1013.76 1013.77
1004.54 1005.14 1005.52 1005.65 1006.19 1006.70 1006.77 1006.69 1006.63 1006.73 1007.06 1007.36 1007.68 1008.23 1008.48 1008.72 1008.85 1008.99 1009.56 1009.87 1010.41 1011.00 1011.37 1011.75 1012.04 1012.09 1012.19 1012.56 1013.01 1013.10 1013.34 1013.79
1004.87 1005.27 1005.66 1005.84 1005.88 1006.13 1006.53 1006.50 1006.34 1006.45 1006.61 1006.90 1007.27 1007.42 1007.94 1008.08 1008.25 1008.56 1008.91 1009.05 1009.56 1010.11 1010.60 1011.18 1011.45 1011.75 1012.14 1012.11 1012.56 1012.95 1012.98 1013.38
1005.50 1005.86 1006.01 1006.15 1006.08 1006.07 1006.06 1006.15 1006.39 1006.33 1006.38 1006.41 1006.84 1007.15 1007.52 1007.61 1007.76 1007.84 1008.17 1008.33 1008.78 1009.35 1009.88 1010.53 1011.09 1011.39 1011.80 1012.18 1012.43 1012.55 1012.87 1013.08
1006.14 1006.43 1006.56 1006.44 1006.32 1006.16 1006.12 1006.16 1005.74 1005.75 1005.82 1005.73 1006.12 1006.56 1007.02 1007.51 1007.56 1007.47 1007.57 1007.94 1008.39 1008.93 1009.45 1010.03 1010.60 1011.13 1011.58 1011.99 1012.30 1012.53 1012.67 1012.82
1006.71 1006.87 1006.92 1006.92 1006.75 1006.55 1006.33 1006.05 1005.87 1005.42 1005.31 1005.37 1005.34 1005.92 1006.40 1007.28 1007.28 1007.13 1007.29 1007.71 1008.11 1008.50 1008.98 1009.33 1010.18 1010.81 1011.20 1011.63 1012.07 1012.43 1012.77 1012.79
1007.11 1007.26 1007.47 1007.36 1007.09 1006.70 1006.40 1006.14 1005.80 1005.53 1004.99 1004.75 1004.81 1005.30 1005.65 1006.25 1006.65 1006.67 1006.93 1007.23 1007.63 1008.15 1008.51 1008.92 1009.43 1010.22 1010.91 1011.29 1011.73 1012.28 1012.54 1012.78
1007.65 1007.74 1007.89 1007.87 1007.47 1007.21 1006.88 1006.41 1005.83 1005.18 1004.77 1004.44 1004.13 1004.34 1004.81 1005.32 1005.63 1006.15 1006.58 1006.72 1007.12 1007.54 1008.23 1008.70 1009.24 1009.84 1010.86 1011.39 1011.97 1012.02 1012.39 1012.63
1008.06 1008.25 1008.30 1008.38 1008.08 1007.77 1007.46 1007.18 1006.61 1005.94 1005.18 1004.47 1003.84 1003.46 1003.67 1004.56 1004.83 1005.10 1005.90 1006.35 1006.60 1006.69 1007.22 1008.25 1008.73 1009.02 1010.48 1011.45 1012.06 1012.53 1012.19 1012.34
1008.42 1008.64 1008.88 1008.83 1008.53 1008.19 1007.71 1007.23 1006.57 1005.72 1005.02 1004.14 1003.46 1002.65 1002.76 1003.21 1004.13 1004.45 1004.85 1005.44 1004.08 1006.98 1007.27 1007.41 1008.05 1008.39 1009.41 1010.66 1011.50 1011.74 1011.93 1011.97
1009.05 1009.15 1009.02 1008.83 1008.98 1008.90 1008.76 1008.19 1007.43 1006.73 1005.64 1004.35 1002.92 1001.97 1001.67 1001.99 1002.56 1003.29 1004.02 1004.45 1005.95 1006.31 1006.74 1007.35 1007.47 1007.87 1009.28 1009.90 1009.40 1010.50 1011.11 1011.79
1009.58 1009.84 1009.70 1009.60 1009.43 1009.64 1009.53 1009.02 1008.18 1007.13 1006.06 1004.61 1003.25 1002.01 1000.56 1000.59 1000.98 1001.86 1002.59 1003.44 1004.75 1004.63 1005.49 1006.49 1007.04 1007.23 1008.34 1009.76 1009.62 1010.00 1010.18 1010.41
1010.26 1010.32 1010.35 1010.30 1010.13 1010.17 1010.04 1009.37 1008.35 1007.31 1006.37 1005.02 1003.44 1001.58 1000.41 999.82 1000.27 1001.11 1001.53 1002.31 1003.23 1003.50 1003.62 1005.83 1006.24 1006.16 1006.47 1008.04 1008.60 1009.49 1009.56 1009.77
1010.64 1010.55 1010.65 1010.92 1010.58 1010.55 1010.17 1009.39 1008.39 1007.25 1006.20 1005.02 1003.59 1001.65 1000.76 1000.46 998.79 1000.51 1001.00 1001.23 1002.29 1002.99 1004.00 1002.73 1004.95 1005.49 1005.66 1005.78 1007.16 1008.40 1008.99 1009.10
1011.00 1010.92 1011.35 1011.50 1010.92 1010.51 1009.97 1009.15 1008.04 1006.73 1005.57 1004.38 1002.97 1001.24 1000.86 1000.20 1000.56 999.81 1000.14 1000.60 1001.96 1002.67 1003.30 1004.26 1004.06 1005.51 1005.27 1005.69 1007.14 1006.54 1008.19 1008.38
Wind_Speed
9 9 9 9 9 8 9 9 10 10 11 12 12 12 12 13 13 13 12 11 10 10 10 10 9 8 8 8 8 8 9 7
1 10 10 9 8 8 8 9 10 10 10 10 10 10 11 11 11 11 11 10 10 9 9 10 11 8 8 8 7 8 7 9
4 2 8 9 9 9 8 9 9 9 9 9 9 7 9 11 11 12 10 9 8 9 9 8 8 10 9 8 7 4 6 5
8 8 3 4 7 10 10 8 7 7 8 9 6 7 8 11 12 10 13 11 9 8 9 9 7 5 5 7 4 6 6 5
10 9 9 5 4 5 6 6 6 6 8 8 8 7 5 7 6 8 7 8 5 6 5 5 8 6 5 7 7 7 4 3
10 12 10 11 6 4 4 5 8 7 9 9 7 6 6 6 5 9 8 7 9 7 6 7 8 8 7 6 6 6 4 3
9 5 5 9 8 6 7 8 6 7 8 11 9 9 7 7 7 7 9 8 9 8 7 8 8 8 7 7 6 6 6 0
8 8 7 6 5 7 6 5 7 6 5 5 7 5 9 8 6 7 8 8 7 8 7 5 6 6 6 5 6 5 5 5
7 3 7 7 7 5 5 7 7 8 8 10 12 9 5 5 4 6 7 8 8 8 5 6 5 4 5 5 5 6 5 5
6 7 7 6 7 5 5 7 4 6 6 8 14 14 11 8 8 6 3 3 7 7 7 5 5 5 4 4 4 4 5 5
6 5 6 7 6 5 7 7 7 6 7 7 12 14 14 12 11 9 8 6 5 7 7 7 5 4 5 4 4 4 4 4
7 7 8 7 6 5 5 6 6 8 8 8 10 12 15 14 12 10 11 10 8 7 8 6 5 6 5 4 5 4 4 4
10 9 9 9 7 7 7 7 6 5 9 12 9 11 15 14 12 12 10 10 11 10 5 9 5 4 3 3 2 2 3 4
9 10 11 9 8 9 8 8 9 10 11 11 13 13 16 14 14 12 12 11 13 12 13 7 5 9 5 3 2 2 3 4
9 10 11 10 11 9 9 9 10 10 11 11 13 16 13 14 15 12 12 10 3 11 11 14 9 8 9 5 3 5 2 3
10 11 12 11 13 11 14 11 12 11 14 13 12 14 15 15 18 15 13 11 13 12 10 9 9 9 6 8 3 4 4 2
11 12 13 14 13 12 10 13 11 11 13 19 18 16 17 16 17 17 15 11 14 14 12 11 9 8 8 4 7 5 5 3
11 12 14 14 12 13 14 16 16 13 14 14 14 15 12 16 17 15 15 12 12 14 14 16 16 12 11 9 7 9 7 4
11 13 14 14 14 14 15 15 16 18 16 14 18 16 11 15 15 13 12 13 14 13 16 17 13 13 12 11 11 10 5 6
14 15 15 15 15 16 15 15 10 12 15 14 14 16 13 12 25 14 15 15 15 17 14 9 10 7 10 9 9 8 8 4
Wind_Direction
139 155 166 167 166 173 163 161 167 168 169 171 169 170 173 181 182 186 185 191 191 188 175 178 185 193 194 200 209 231 255 274
321 154 162 181 173 171 165 166 170 169 170 169 166 172 178 185 186 190 194 194 193 190 182 178 177 190 200 205 209 237 260 279
141 43 165 180 181 170 169 174 169 165 170 175 160 187 184 191 198 190 195 195 196 192 182 183 182 178 201 208 207 243 241 262
153 139 130 189 199 161 179 181 186 188 186 172 193 205 185 197 190 192 185 188 200 191 185 177 172 200 184 201 225 241 248 252
165 161 155 186 261 145 177 181 189 194 198 185 190 201 217 194 187 186 183 185 203 193 186 200 192 218 198 186 199 233 244 246
160 165 169 173 197 206 206 206 186 189 195 194 185 206 207 194 203 178 188 182 197 203 197 200 211 203 228 192 204 205 232 213
34 48 187 184 204 213 214 212 194 209 191 198 199 189 205 206 194 187 185 187 183 203 205 197 206 210 208 194 207 221 234 240
45 12 4 3 207 199 232 249 236 202 209 207 213 217 196 212 206 196 180 185 173 198 201 195 205 201 206 199 205 222 216 210
42 321 28 355 336 331 222 205 231 225 208 204 206 219 252 223 232 194 211 177 183 186 210 170 193 196 195 200 212 212 212 208
20 7 347 336 334 337 322 311 230 229 232 211 189 199 213 231 232 224 216 191 179 183 189 173 180 180 186 201 206 216 207 203
12 1 350 348 324 312 308 299 295 260 229 234 190 193 193 217 225 211 201 211 201 184 190 178 171 174 186 179 206 203 219 201
20 15 356 340 312 287 271 263 271 281 258 230 223 191 199 203 223 228 197 198 203 184 189 173 168 176 180 185 186 208 196 211
12 4 358 350 331 327 314 303 302 259 262 242 246 201 199 210 210 219 199 204 200 180 176 171 167 156 107 97 16 32 290 166
9 0 358 346 333 335 318 303 295 294 297 300 261 233 205 208 215 208 204 206 199 188 176 183 172 162 164 109 182 288 219 222
9 1 351 343 335 327 322 313 304 273 271 274 270 229 212 197 215 211 203 198 210 214 191 180 176 165 161 148 150 217 135 202
10 358 348 347 346 338 327 310 294 290 293 292 272 238 214 202 202 207 198 194 196 199 213 200 174 168 164 224 192 134 186 168
15 1 351 346 343 338 325 305 296 293 290 290 282 278 222 206 195 202 206 201 205 192 171 193 193 167 173 185 231 251 241 151
14 359 348 341 336 329 312 300 294 287 284 286 283 283 257 227 201 199 198 185 194 206 183 210 192 178 168 187 191 210 218 192
4 359 347 335 333 322 308 296 290 283 280 273 275 276 287 271 198 191 189 179 187 201 200 213 189 188 184 186 187 212 228 216
8 359 341 336 334 324 312 300 288 284 276 267 266 266 269 201 219 195 185 177 193 196 208 201 166 210 189 185 216 184 219 203